QPF
0.00 0.00 0.00 0.00 0.00 0.00 0.00 0.00 0.00 0.00 0.00 0.00 0.00 0.00 0.00 0.00 0.00 0.00 0.00 0.00 0.00 0.00 0.00 0.00 0.00 0.00 0.00 0.00 0.00 0.00 0.00 0.00 0.00 0.00 0.00 0.00 0.00 0.00 0.00 0.00 0.00 0.00 0.00 0.00 0.00
0.00 0.00 0.00 0.00 0.00 0.00 0.00 0.00 0.00 0.00 0.00 0.00 0.00 0.00 0.00 0.00 0.00 0.00 0.00 0.00 0.00 0.00 0.00 0.00 0.00 0.00 0.00 0.00 0.00 0.00 0.00 0.00 0.00 0.00 0.00 0.00 0.00 0.00 0.00 0.00 0.00 0.00 0.00 0.00 0.00
0.00 0.00 0.00 0.00 0.00 0.00 0.00 0.00 0.00 0.00 0.00 0.00 0.00 0.00 0.00 0.00 0.00 0.00 0.00 0.00 0.00 0.00 0.00 0.00 0.00 0.00 0.00 0.00 0.00 0.00 0.00 0.00 0.00 0.00 0.00 0.00 0.00 0.00 0.00 0.00 0.00 0.00 0.00 0.00 0.00
0.00 0.00 0.00 0.00 0.00 0.00 0.00 0.00 0.00 0.00 0.00 0.00 0.00 0.00 0.00 0.00 0.00 0.00 0.00 0.00 0.00 0.00 0.00 0.00 0.00 0.00 0.00 0.00 0.00 0.00 0.00 0.00 0.00 0.00 0.00 0.00 0.00 0.00 0.00 0.00 0.00 0.00 0.00 0.00 0.00
0.00 0.00 0.00 0.00 0.00 0.00 0.00 0.00 0.00 0.00 0.00 0.00 0.00 0.00 0.00 0.00 0.00 0.00 0.00 0.00 0.00 0.00 0.00 0.00 0.00 0.00 0.00 0.00 0.00 0.00 0.00 0.00 0.00 0.00 0.00 0.00 0.00 0.00 0.00 0.00 0.00 0.00 0.00 0.00 0.00
0.00 0.00 0.00 0.00 0.00 0.00 0.00 0.00 0.00 0.00 0.00 0.00 0.00 0.00 0.00 0.00 0.00 0.00 0.00 0.00 0.00 0.00 0.00 0.00 0.00 0.00 0.00 0.00 0.00 0.00 0.00 0.00 0.00 0.00 0.00 0.00 0.00 0.00 0.00 0.00 0.00 0.00 0.00 0.00 0.00
0.00 0.00 0.00 0.00 0.00 0.00 0.00 0.00 0.00 0.00 0.00 0.00 0.00 0.00 0.00 0.00 0.00 0.00 0.00 0.00 0.00 0.00 0.00 0.00 0.00 0.00 0.00 0.00 0.00 0.00 0.00 0.00 0.00 0.00 0.00 0.00 0.00 0.00 0.00 0.00 0.00 0.00 0.00 0.00 0.00
0.00 0.00 0.00 0.00 0.00 0.00 0.00 0.00 0.00 0.00 0.00 0.00 0.00 0.00 0.00 0.00 0.00 0.00 0.00 0.00 0.00 0.00 0.00 0.00 0.00 0.00 0.00 0.00 0.00 0.00 0.00 0.00 0.00 0.00 0.00 0.00 0.00 0.00 0.00 0.00 0.00 0.00 0.00 0.00 0.00
0.00 0.00 0.00 0.00 0.00 0.00 0.00 0.00 0.00 0.00 0.00 0.00 0.00 0.00 0.00 0.00 0.00 0.00 0.00 0.00 0.00 0.00 0.00 0.00 0.00 0.00 0.00 0.00 0.00 0.00 0.00 0.00 0.00 0.00 0.00 0.00 0.00 0.00 0.00 0.00 0.00 0.00 0.00 0.00 0.00
0.00 0.00 0.00 0.00 0.00 0.00 0.00 0.00 0.00 0.00 0.00 0.00 0.00 0.00 0.00 0.00 0.00 0.00 0.00 0.00 0.00 0.00 0.00 0.00 0.00 0.00 0.00 0.00 0.00 0.00 0.00 0.00 0.00 0.00 0.00 0.00 0.00 0.00 0.00 0.00 0.00 0.00 0.00 0.00 0.00
0.00 0.00 0.00 0.00 0.00 0.00 0.00 0.00 0.00 0.00 0.00 0.00 0.00 0.00 0.00 0.00 0.00 0.00 0.00 0.00 0.00 0.00 0.00 0.00 0.00 0.00 0.00 0.00 0.00 0.00 0.00 0.00 0.00 0.00 0.00 0.00 0.00 0.00 0.00 0.00 0.00 0.00 0.00 0.00 0.00
0.00 0.00 0.00 0.00 0.00 0.00 0.00 0.00 0.00 0.00 0.00 0.00 0.00 0.00 0.00 0.00 0.00 0.00 0.00 0.00 0.00 0.00 0.00 0.00 0.00 0.00 0.00 0.00 0.00 0.00 0.00 0.00 0.00 0.00 0.00 0.00 0.00 0.00 0.00 0.00 0.00 0.00 0.00 0.00 0.00
0.00 0.00 0.00 0.00 0.00 0.00 0.00 0.00 0.00 0.00 0.00 0.00 0.00 0.00 0.00 0.00 0.00 0.00 0.00 0.00 0.00 0.00 0.00 0.00 0.00 0.00 0.00 0.00 0.00 0.00 0.00 0.00 0.00 0.00 0.00 0.00 0.00 0.00 0.00 0.00 0.00 0.00 0.00 0.00 0.00
0.00 0.00 0.00 0.00 0.00 0.00 0.00 0.00 0.00 0.00 0.00 0.00 0.00 0.00 0.00 0.00 0.00 0.00 0.00 0.00 0.00 0.00 0.00 0.00 0.00 0.00 0.00 0.00 0.00 0.00 0.00 0.00 0.00 0.00 0.00 0.00 0.00 0.00 0.00 0.00 0.00 0.00 0.00 0.00 0.00
0.00 0.00 0.00 0.00 0.00 0.00 0.00 0.00 0.00 0.00 0.00 0.00 0.00 0.00 0.00 0.00 0.00 0.00 0.00 0.00 0.00 0.00 0.00 0.00 0.00 0.00 0.00 0.00 0.00 0.00 0.00 0.00 0.00 0.00 0.00 0.00 0.00 0.00 0.00 0.00 0.00 0.00 0.00 0.00 0.00
0.00 0.00 0.00 0.00 0.00 0.00 0.00 0.00 0.00 0.00 0.00 0.00 0.00 0.00 0.00 0.00 0.00 0.00 0.00 0.00 0.00 0.00 0.00 0.00 0.00 0.00 0.00 0.00 0.00 0.00 0.00 0.00 0.00 0.00 0.00 0.00 0.00 0.00 0.00 0.00 0.00 0.00 0.00 0.00 0.00
0.00 0.00 0.00 0.00 0.00 0.00 0.00 0.00 0.00 0.00 0.00 0.00 0.00 0.00 0.00 0.00 0.00 0.00 0.00 0.00 0.00 0.00 0.00 0.00 0.00 0.00 0.00 0.00 0.00 0.00 0.00 0.00 0.00 0.00 0.00 0.00 0.00 0.00 0.00 0.00 0.00 0.00 0.00 0.00 0.00
0.00 0.00 0.00 0.00 0.00 0.00 0.00 0.00 0.00 0.00 0.00 0.00 0.00 0.00 0.00 0.00 0.00 0.00 0.00 0.00 0.00 0.00 0.00 0.00 0.00 0.00 0.00 0.00 0.00 0.00 0.00 0.00 0.00 0.00 0.00 0.00 0.00 0.00 0.00 0.00 0.00 0.00 0.00 0.00 0.00
0.00 0.00 0.00 0.00 0.00 0.00 0.00 0.00 0.00 0.00 0.00 0.00 0.00 0.00 0.00 0.00 0.00 0.00 0.00 0.00 0.00 0.00 0.00 0.00 0.00 0.00 0.00 0.00 0.00 0.00 0.00 0.00 0.00 0.00 0.00 0.00 0.00 0.00 0.00 0.00 0.00 0.00 0.00 0.00 0.00
0.00 0.00 0.00 0.00 0.00 0.00 0.00 0.00 0.00 0.00 0.00 0.00 0.00 0.00 0.00 0.00 0.00 0.00 0.00 0.00 0.00 0.00 0.00 0.00 0.00 0.00 0.00 0.00 0.00 0.00 0.00 0.00 0.00 0.00 0.00 0.00 0.00 0.00 0.00 0.00 0.00 0.00 0.00 0.00 0.00
0.00 0.00 0.00 0.00 0.00 0.00 0.00 0.00 0.00 0.00 0.00 0.00 0.00 0.00 0.00 0.00 0.00 0.00 0.00 0.00 0.00 0.00 0.00 0.00 0.00 0.00 0.00 0.00 0.00 0.00 0.00 0.00 0.00 0.00 0.00 0.00 0.00 0.00 0.00 0.00 0.00 0.00 0.00 0.00 0.00
0.00 0.00 0.00 0.00 0.00 0.00 0.00 0.00 0.00 0.00 0.00 0.00 0.00 0.00 0.00 0.00 0.00 0.00 0.00 0.00 0.00 0.00 0.00 0.00 0.00 0.00 0.00 0.00 0.00 0.00 0.00 0.00 0.00 0.00 0.00 0.00 0.00 0.00 0.00 0.00 0.00 0.00 0.00 0.00 0.00
0.00 0.00 0.00 0.00 0.00 0.00 0.00 0.00 0.00 0.00 0.00 0.00 0.00 0.00 0.00 0.00 0.00 0.00 0.00 0.00 0.00 0.00 0.00 0.00 0.00 0.00 0.00 0.00 0.00 0.00 0.00 0.00 0.00 0.00 0.00 0.00 0.00 0.00 0.00 0.00 0.00 0.00 0.00 0.00 0.00
0.00 0.00 0.00 0.00 0.00 0.00 0.00 0.00 0.00 0.00 0.00 0.00 0.00 0.00 0.00 0.00 0.00 0.00 0.00 0.00 0.00 0.00 0.00 0.00 0.00 0.00 0.00 0.00 0.00 0.00 0.00 0.00 0.00 0.00 0.00 0.00 0.00 0.00 0.00 0.00 0.00 0.00 0.00 0.00 0.00
0.00 0.00 0.00 0.00 0.00 0.00 0.00 0.00 0.00 0.00 0.00 0.00 0.00 0.00 0.00 0.00 0.00 0.00 0.00 0.00 0.00 0.00 0.00 0.00 0.00 0.00 0.00 0.00 0.00 0.00 0.00 0.00 0.00 0.00 0.00 0.00 0.00 0.00 0.00 0.00 0.00 0.00 0.00 0.00 0.00
0.00 0.00 0.00 0.00 0.00 0.00 0.00 0.00 0.00 0.00 0.00 0.00 0.00 0.00 0.00 0.00 0.00 0.00 0.00 0.00 0.00 0.00 0.00 0.00 0.00 0.00 0.00 0.00 0.00 0.00 0.00 0.00 0.00 0.00 0.00 0.00 0.00 0.00 0.00 0.00 0.00 0.00 0.00 0.00 0.00
0.00 0.00 0.00 0.00 0.00 0.00 0.00 0.00 0.00 0.00 0.00 0.00 0.00 0.00 0.00 0.00 0.00 0.00 0.00 0.00 0.00 0.00 0.00 0.00 0.00 0.00 0.00 0.00 0.00 0.00 0.00 0.00 0.00 0.00 0.00 0.00 0.00 0.00 0.00 0.00 0.00 0.00 0.00 0.00 0.00
MSLP
1017.95 1017.51 1017.18 1016.71 1016.23 1015.93 1015.51 1015.09 1014.74 1014.34 1013.96 1013.23 1012.61 1012.23 1011.47 1010.85 1010.01 1009.77 1008.54 1007.61 1007.34 1007.41 1007.53 1007.30 1007.10 1007.34 1007.61 1007.45 1007.52 1007.44 1006.76 1006.68 1006.61 1006.75 1006.58 1007.27 1007.71 1008.65 1009.10 1009.56 1010.02 1010.60 1011.06 1011.43 1012.71
1017.96 1017.71 1017.23 1016.80 1016.41 1015.99 1015.58 1014.84 1014.53 1014.02 1013.78 1013.09 1012.50 1012.01 1011.57 1011.08 1010.12 1008.55 1007.35 1007.27 1007.23 1007.33 1007.23 1006.97 1006.54 1006.63 1006.42 1006.63 1006.81 1006.47 1006.25 1006.49 1006.49 1006.40 1006.28 1006.66 1007.25 1008.22 1008.93 1009.49 1010.13 1010.88 1011.67 1012.23 1013.08
1018.23 1017.76 1017.29 1016.84 1016.50 1016.05 1015.48 1014.79 1014.34 1013.84 1013.59 1012.95 1012.39 1011.93 1011.29 1010.77 1009.47 1008.00 1007.25 1007.25 1007.31 1007.20 1007.35 1007.01 1006.49 1006.11 1005.81 1006.03 1006.36 1006.38 1006.05 1006.28 1006.15 1006.33 1006.44 1006.64 1007.32 1007.97 1008.48 1009.23 1009.53 1010.25 1011.53 1012.36 1013.01
1018.23 1017.79 1017.40 1016.97 1016.52 1015.80 1015.05 1014.62 1014.04 1013.49 1013.37 1012.81 1012.27 1011.60 1010.96 1010.27 1009.16 1007.74 1007.46 1007.46 1007.29 1007.10 1006.91 1006.61 1006.11 1005.72 1005.71 1005.80 1006.27 1006.13 1006.27 1006.16 1005.91 1006.14 1006.42 1006.75 1007.28 1007.79 1008.19 1008.54 1009.12 1010.12 1011.11 1012.22 1012.83
1018.25 1017.80 1017.44 1016.97 1016.29 1015.75 1015.12 1014.52 1013.80 1013.37 1012.96 1012.58 1012.15 1011.41 1010.47 1009.57 1008.19 1007.56 1007.62 1007.50 1007.22 1007.01 1006.68 1006.34 1005.98 1005.94 1005.82 1005.94 1006.07 1005.91 1005.91 1005.94 1005.84 1006.08 1006.35 1006.85 1007.15 1007.65 1008.12 1008.87 1009.40 1010.42 1011.42 1011.95 1012.63
1018.35 1017.80 1017.37 1016.84 1016.19 1015.65 1015.09 1014.29 1013.69 1013.04 1012.73 1012.39 1011.88 1011.53 1010.42 1009.20 1007.64 1007.47 1007.48 1007.42 1007.07 1006.93 1006.67 1006.30 1006.24 1006.11 1005.86 1005.90 1005.83 1006.02 1005.83 1005.75 1005.54 1005.79 1006.19 1006.35 1006.99 1007.59 1008.32 1008.93 1009.84 1010.63 1011.20 1011.78 1012.18
1018.34 1017.69 1017.13 1016.58 1016.11 1015.37 1014.64 1014.03 1013.35 1012.89 1012.45 1012.02 1011.73 1011.33 1010.17 1008.34 1007.60 1007.39 1007.53 1007.28 1007.11 1006.96 1006.65 1006.48 1006.42 1006.15 1006.06 1005.91 1006.07 1005.92 1005.57 1005.37 1005.37 1005.67 1005.87 1006.34 1006.99 1006.89 1007.79 1008.59 1009.60 1010.40 1011.08 1011.64 1011.93
1018.15 1017.62 1017.04 1016.34 1015.57 1015.02 1014.33 1013.59 1012.99 1012.53 1011.93 1011.61 1011.62 1011.09 1009.06 1007.59 1007.51 1007.44 1007.40 1007.11 1007.10 1006.98 1006.88 1006.73 1006.55 1006.41 1006.29 1006.39 1006.27 1005.98 1005.89 1005.49 1005.70 1005.70 1005.98 1005.93 1005.70 1006.15 1007.51 1008.19 1009.25 1010.20 1010.77 1011.37 1011.47
1018.08 1017.46 1016.97 1016.26 1015.52 1014.88 1014.03 1013.30 1012.48 1011.98 1011.75 1011.77 1011.47 1010.48 1008.30 1007.28 1007.33 1007.06 1007.15 1006.98 1006.90 1006.84 1006.76 1006.75 1006.65 1006.85 1006.45 1006.19 1006.15 1006.28 1005.96 1005.99 1005.89 1006.11 1006.14 1006.09 1005.60 1006.21 1007.21 1007.91 1008.84 1009.71 1010.19 1010.67 1011.12
1017.95 1017.29 1016.66 1016.07 1015.35 1014.48 1013.51 1012.50 1012.07 1011.91 1011.74 1011.47 1011.11 1010.50 1008.09 1007.51 1007.19 1007.07 1007.18 1007.13 1006.84 1006.73 1006.71 1006.91 1007.11 1006.91 1006.73 1006.31 1005.98 1006.29 1006.39 1006.47 1006.37 1006.20 1006.07 1006.09 1006.07 1006.53 1007.24 1007.67 1008.09 1008.88 1009.60 1010.13 1010.66
1017.89 1017.32 1016.48 1015.91 1015.05 1014.37 1013.29 1012.13 1012.57 1012.09 1011.14 1010.55 1010.11 1009.36 1008.17 1007.51 1007.23 1006.97 1007.07 1007.05 1006.96 1007.04 1007.11 1007.62 1007.20 1006.74 1006.63 1006.55 1006.60 1006.82 1006.79 1006.75 1006.45 1006.26 1006.17 1005.87 1005.90 1006.15 1006.89 1007.41 1007.74 1008.44 1009.12 1009.53 1009.96
1017.90 1017.37 1016.48 1015.78 1014.87 1014.22 1014.02 1013.03 1013.43 1013.64 1011.77 1010.01 1009.77 1009.13 1008.35 1007.95 1007.28 1006.77 1006.85 1006.88 1006.98 1007.09 1007.47 1007.72 1007.22 1007.13 1007.13 1007.04 1006.74 1006.75 1006.74 1006.53 1006.46 1006.35 1005.95 1006.01 1005.83 1006.22 1006.68 1006.89 1007.47 1008.14 1008.72 1009.14 1009.83
1017.89 1017.29 1016.45 1015.52 1014.67 1014.03 1013.98 1013.56 1013.52 1013.36 1012.30 1009.78 1009.03 1008.34 1007.74 1007.68 1006.96 1006.39 1006.53 1006.62 1006.80 1007.14 1007.25 1007.23 1007.20 1007.21 1007.12 1006.85 1006.57 1006.69 1006.48 1006.43 1006.49 1006.51 1006.61 1006.43 1005.97 1006.09 1006.46 1007.05 1007.38 1007.54 1007.83 1008.33 1008.89
1017.81 1017.15 1016.38 1015.41 1014.80 1014.94 1014.05 1013.69 1013.52 1013.16 1011.75 1009.43 1008.43 1007.52 1007.56 1007.20 1006.61 1006.02 1006.03 1006.28 1006.68 1006.94 1007.34 1007.24 1007.14 1007.00 1006.74 1006.39 1006.34 1006.25 1006.30 1006.51 1006.59 1006.38 1006.60 1006.97 1006.17 1006.28 1006.37 1006.58 1006.85 1006.83 1007.06 1007.37 1008.20
1017.56 1017.05 1016.48 1016.27 1015.55 1014.65 1013.96 1013.65 1013.31 1012.74 1010.79 1008.94 1007.74 1007.31 1007.30 1006.97 1006.30 1006.17 1006.13 1006.18 1006.45 1006.92 1007.41 1006.95 1006.87 1006.72 1006.31 1005.93 1006.08 1006.35 1006.49 1006.82 1007.03 1006.99 1007.11 1007.20 1006.77 1006.03 1006.57 1006.37 1006.49 1006.53 1006.71 1006.89 1007.96
1017.13 1016.76 1016.37 1016.05 1015.65 1013.96 1013.73 1013.29 1012.95 1011.93 1009.91 1008.25 1007.51 1007.10 1007.01 1006.75 1006.23 1006.21 1006.08 1006.11 1006.61 1006.94 1007.14 1006.87 1006.79 1006.51 1005.95 1006.01 1006.12 1006.59 1006.95 1007.36 1007.67 1007.49 1007.32 1007.79 1007.44 1006.15 1006.25 1006.78 1006.52 1006.64 1006.71 1006.97 1007.73
1016.54 1016.23 1016.07 1015.48 1014.52 1013.92 1013.49 1012.75 1012.31 1010.84 1009.47 1008.44 1007.63 1007.17 1006.81 1006.55 1006.27 1006.06 1006.01 1006.24 1006.38 1006.88 1006.86 1006.83 1006.42 1005.97 1005.84 1005.87 1006.46 1006.48 1006.67 1007.11 1007.41 1007.49 1007.63 1008.33 1007.79 1006.27 1006.47 1007.07 1007.15 1006.91 1006.71 1006.90 1007.77
1015.83 1015.32 1015.22 1014.88 1014.45 1014.22 1013.09 1012.56 1011.71 1010.26 1009.39 1008.61 1007.88 1007.38 1006.88 1006.44 1006.23 1006.17 1006.15 1006.30 1006.68 1006.69 1006.82 1006.51 1006.32 1005.72 1005.49 1005.51 1005.75 1006.57 1006.76 1007.04 1007.45 1008.00 1007.95 1008.45 1007.26 1006.19 1006.87 1007.11 1007.18 1007.07 1007.09 1007.29 1007.90
1015.25 1015.03 1014.88 1014.41 1014.33 1014.39 1013.24 1012.39 1011.17 1010.48 1009.80 1008.94 1007.97 1007.43 1006.88 1006.53 1006.37 1006.33 1006.15 1006.08 1006.09 1006.46 1006.24 1006.29 1006.02 1005.59 1005.57 1005.58 1005.91 1007.06 1007.28 1007.65 1008.03 1009.09 1008.26 1007.76 1007.16 1006.22 1006.70 1006.81 1007.10 1007.29 1007.47 1007.66 1008.09
1015.57 1014.89 1014.54 1014.30 1014.19 1013.67 1013.04 1012.33 1011.62 1010.89 1010.12 1009.47 1008.55 1007.90 1007.13 1006.75 1006.54 1006.38 1006.29 1005.78 1005.84 1005.96 1005.95 1006.31 1006.09 1005.85 1005.77 1005.87 1006.53 1006.57 1007.22 1007.71 1007.79 1008.01 1007.80 1007.55 1007.16 1006.43 1006.32 1006.54 1007.35 1007.70 1007.96 1008.41 1008.84
1015.45 1014.75 1014.54 1014.38 1014.09 1013.49 1013.15 1012.76 1011.96 1010.96 1010.49 1009.74 1009.01 1008.36 1007.68 1007.20 1006.82 1006.48 1006.11 1005.67 1005.53 1005.82 1006.16 1006.43 1006.51 1006.24 1006.13 1005.90 1006.02 1007.07 1007.08 1007.66 1007.74 1008.07 1007.47 1007.23 1006.56 1006.34 1006.50 1007.02 1007.84 1008.42 1008.72 1009.13 1009.87
1015.44 1014.66 1014.33 1014.10 1014.07 1014.47 1013.61 1013.29 1012.61 1011.22 1010.52 1009.81 1009.35 1008.74 1008.10 1007.66 1007.11 1006.74 1006.17 1005.91 1005.71 1005.78 1006.23 1006.48 1006.41 1006.20 1006.02 1006.12 1006.43 1006.33 1006.47 1006.86 1007.06 1008.26 1008.20 1007.53 1006.55 1006.63 1006.92 1007.68 1008.55 1008.94 1009.34 1009.83 1010.39
1015.83 1015.11 1014.28 1013.92 1013.95 1014.10 1013.87 1013.26 1012.67 1011.62 1010.76 1010.04 1009.34 1008.90 1008.49 1007.91 1007.61 1006.86 1006.38 1006.09 1006.11 1005.89 1005.78 1006.32 1006.60 1006.39 1006.05 1006.40 1006.62 1006.25 1006.62 1006.95 1007.11 1007.44 1007.45 1006.93 1006.51 1006.93 1007.50 1008.11 1008.89 1009.31 1009.94 1010.23 1010.36
1016.19 1015.41 1014.72 1014.49 1014.89 1014.41 1014.02 1013.42 1012.65 1011.90 1011.17 1010.45 1009.64 1009.11 1008.73 1008.14 1007.81 1007.16 1006.50 1006.31 1006.41 1006.23 1006.09 1006.02 1006.40 1006.09 1005.81 1005.81 1005.97 1006.19 1006.54 1006.72 1006.35 1006.70 1006.97 1006.63 1006.45 1006.62 1007.53 1008.38 1009.14 1009.92 1010.29 1010.26 1010.42
1016.75 1016.68 1016.39 1015.36 1015.08 1014.81 1014.41 1013.84 1012.91 1012.12 1011.41 1010.75 1009.84 1009.18 1008.86 1008.33 1007.75 1007.27 1006.95 1006.59 1006.62 1006.72 1006.63 1006.47 1006.34 1006.47 1006.18 1006.07 1006.00 1005.88 1006.05 1006.29 1006.27 1006.10 1005.86 1006.21 1006.74 1007.00 1008.16 1008.93 1009.62 1010.11 1010.45 1010.38 1010.36
1017.79 1017.57 1017.04 1016.19 1015.63 1014.91 1014.68 1014.01 1013.35 1012.67 1012.15 1010.73 1010.16 1009.37 1009.05 1008.69 1008.01 1007.43 1007.30 1007.19 1007.09 1006.93 1006.95 1007.23 1006.91 1006.63 1006.54 1006.25 1006.13 1006.01 1006.11 1006.30 1006.43 1006.48 1006.44 1006.74 1007.23 1008.30 1009.17 1009.65 1009.85 1010.34 1010.59 1010.57 1010.42
1019.20 1018.78 1017.89 1016.84 1015.80 1015.09 1014.72 1014.29 1013.70 1013.38 1011.91 1011.27 1010.61 1010.15 1009.38 1009.16 1008.79 1008.16 1007.83 1007.69 1007.66 1007.46 1007.24 1007.41 1007.27 1007.06 1006.86 1006.66 1006.40 1006.40 1006.04 1006.22 1006.39 1006.51 1006.43 1006.90 1007.73 1008.77 1009.47 1009.99 1010.45 1010.81 1011.04 1010.91 1010.85
Thickness
5740 5746 5751 5756 5762 5766 5771 5776 5781 5786 5790 5799 5806 5810 5818 5823 5832 5835 5838 5854 5859 5862 5863 5864 5862 5856 5854 5846 5849 5848 5825 5810 5815 5811 5822 5833 5822 5826 5829 5815 5818 5816 5810 5811 5803
5738 5742 5747 5753 5758 5763 5768 5777 5781 5787 5790 5798 5805 5811 5815 5820 5830 5836 5854 5858 5860 5861 5858 5855 5853 5857 5850 5847 5846 5839 5828 5820 5835 5836 5833 5836 5833 5825 5818 5814 5809 5809 5811 5810 5802
5732 5738 5744 5750 5754 5760 5767 5776 5780 5786 5789 5797 5803 5809 5816 5822 5830 5835 5855 5857 5858 5862 5859 5860 5860 5858 5848 5852 5844 5837 5829 5838 5842 5843 5844 5838 5832 5836 5823 5808 5819 5813 5807 5806 5799
5728 5735 5741 5746 5751 5760 5769 5775 5781 5787 5789 5796 5801 5809 5817 5825 5798 5843 5853 5854 5858 5862 5859 5857 5856 5848 5841 5838 5844 5832 5841 5844 5848 5849 5843 5834 5840 5829 5832 5830 5837 5828 5819 5808 5799
5725 5731 5737 5742 5751 5758 5766 5773 5781 5786 5791 5796 5801 5809 5821 5818 5822 5848 5850 5852 5856 5857 5852 5850 5847 5845 5835 5840 5841 5837 5843 5848 5853 5849 5846 5844 5835 5832 5831 5837 5838 5828 5817 5810 5803
5719 5727 5733 5740 5748 5755 5762 5772 5779 5786 5791 5795 5801 5806 5814 5800 5842 5846 5849 5850 5852 5852 5851 5854 5847 5851 5843 5840 5840 5842 5843 5845 5853 5849 5848 5841 5836 5837 5834 5838 5828 5823 5817 5813 5808
5715 5724 5731 5738 5745 5753 5762 5771 5779 5785 5791 5796 5801 5806 5806 5815 5842 5845 5845 5847 5852 5851 5846 5856 5856 5848 5847 5838 5847 5843 5837 5846 5849 5849 5845 5848 5825 5832 5841 5840 5827 5822 5818 5814 5811
5712 5720 5728 5737 5746 5752 5761 5771 5779 5785 5792 5797 5799 5804 5803 5837 5841 5841 5844 5844 5850 5853 5851 5857 5859 5849 5843 5845 5837 5829 5831 5819 5839 5846 5847 5848 5824 5847 5845 5839 5828 5823 5818 5813 5814
5708 5716 5723 5733 5742 5749 5760 5770 5780 5786 5790 5792 5797 5801 5801 5837 5829 5841 5843 5835 5843 5847 5851 5854 5851 5833 5839 5827 5819 5818 5805 5810 5822 5839 5838 5837 5831 5845 5848 5840 5830 5825 5822 5818 5814
5703 5713 5721 5729 5738 5749 5761 5772 5779 5782 5787 5790 5794 5789 5812 5810 5826 5834 5840 5839 5833 5835 5832 5831 5827 5821 5819 5819 5793 5800 5802 5806 5804 5829 5834 5828 5828 5837 5841 5840 5837 5832 5825 5819 5814
5698 5707 5718 5725 5736 5746 5758 5771 5772 5775 5784 5785 5788 5790 5802 5819 5829 5826 5833 5829 5829 5821 5804 5810 5807 5803 5813 5816 5814 5807 5802 5798 5813 5829 5826 5827 5829 5839 5839 5838 5836 5832 5826 5821 5818
5691 5700 5712 5721 5732 5742 5747 5757 5754 5755 5764 5784 5785 5790 5802 5810 5801 5817 5831 5812 5809 5797 5803 5800 5795 5808 5811 5811 5810 5806 5800 5804 5816 5825 5830 5824 5827 5832 5835 5838 5838 5832 5827 5823 5818
5684 5693 5705 5717 5728 5737 5741 5747 5750 5755 5754 5776 5786 5790 5800 5805 5799 5808 5821 5812 5802 5793 5796 5792 5801 5807 5806 5806 5806 5804 5804 5805 5807 5816 5819 5817 5817 5824 5833 5833 5835 5837 5837 5831 5825
5678 5688 5699 5712 5722 5722 5735 5740 5745 5752 5744 5766 5776 5790 5796 5801 5794 5821 5825 5814 5801 5792 5791 5794 5806 5803 5805 5804 5812 5799 5817 5814 5809 5811 5795 5807 5791 5810 5822 5825 5829 5833 5836 5837 5830
5673 5681 5691 5698 5709 5721 5730 5734 5740 5748 5717 5765 5774 5800 5794 5792 5799 5802 5820 5811 5791 5790 5791 5791 5796 5798 5798 5810 5815 5806 5817 5810 5802 5800 5797 5795 5793 5814 5813 5818 5825 5832 5835 5840 5833
5670 5677 5685 5693 5699 5717 5723 5730 5736 5723 5708 5751 5771 5772 5776 5785 5791 5798 5802 5813 5806 5791 5792 5795 5810 5807 5810 5813 5816 5809 5803 5795 5789 5792 5778 5775 5780 5800 5810 5812 5823 5831 5834 5835 5831
5668 5675 5682 5690 5708 5711 5717 5725 5706 5701 5740 5742 5753 5766 5768 5770 5778 5784 5783 5781 5777 5762 5767 5783 5793 5810 5815 5804 5807 5805 5798 5770 5764 5767 5766 5770 5773 5801 5816 5816 5817 5822 5831 5834 5829
5670 5678 5683 5689 5696 5701 5713 5708 5683 5715 5722 5743 5749 5756 5755 5767 5772 5774 5772 5768 5777 5778 5763 5765 5762 5797 5813 5809 5802 5795 5795 5772 5739 5747 5764 5766 5774 5804 5813 5818 5822 5826 5829 5831 5823
5670 5676 5681 5687 5691 5694 5703 5685 5698 5704 5721 5727 5743 5742 5749 5759 5764 5765 5769 5771 5781 5781 5769 5764 5768 5801 5806 5810 5809 5782 5781 5787 5757 5740 5758 5770 5787 5814 5812 5817 5819 5820 5822 5821 5819
5662 5673 5679 5682 5687 5693 5691 5682 5694 5705 5715 5721 5718 5733 5734 5746 5751 5755 5755 5779 5778 5787 5795 5776 5762 5788 5796 5805 5797 5796 5792 5772 5769 5741 5740 5761 5763 5783 5806 5816 5812 5812 5812 5811 5809
5660 5670 5672 5675 5681 5685 5677 5678 5687 5706 5708 5710 5713 5719 5731 5735 5744 5746 5757 5776 5785 5782 5786 5779 5770 5773 5785 5784 5784 5777 5780 5769 5777 5760 5757 5750 5771 5806 5807 5813 5805 5803 5804 5802 5796
5653 5658 5665 5669 5668 5651 5669 5670 5679 5697 5706 5709 5712 5717 5723 5730 5735 5739 5752 5764 5782 5784 5767 5780 5772 5758 5772 5787 5789 5791 5786 5785 5772 5744 5746 5761 5777 5802 5806 5803 5799 5798 5797 5794 5791
5645 5648 5658 5663 5654 5654 5660 5669 5676 5686 5695 5701 5705 5715 5722 5725 5723 5741 5750 5770 5774 5778 5773 5774 5758 5748 5759 5772 5777 5781 5778 5774 5770 5766 5752 5760 5775 5799 5799 5797 5796 5794 5789 5788 5788
5635 5642 5647 5646 5639 5648 5650 5656 5664 5681 5684 5694 5701 5710 5713 5718 5726 5731 5746 5761 5768 5772 5769 5779 5756 5761 5754 5766 5775 5767 5772 5774 5785 5768 5759 5772 5783 5802 5798 5792 5791 5785 5784 5787 5785
5621 5620 5621 5634 5637 5636 5641 5648 5654 5662 5678 5686 5693 5701 5707 5708 5718 5728 5740 5751 5761 5759 5763 5770 5758 5758 5766 5769 5772 5779 5776 5773 5774 5782 5781 5784 5779 5798 5789 5785 5782 5784 5782 5781 5780
5612 5612 5612 5617 5618 5630 5630 5640 5645 5654 5661 5676 5682 5697 5701 5704 5717 5723 5731 5737 5743 5757 5754 5754 5747 5759 5754 5765 5769 5767 5774 5773 5772 5771 5776 5778 5779 5781 5776 5779 5780 5777 5777 5775 5775
5585 5588 5598 5601 5614 5623 5626 5632 5638 5644 5662 5669 5678 5683 5692 5703 5714 5725 5732 5735 5737 5743 5749 5748 5743 5746 5741 5753 5760 5748 5768 5772 5772 5776 5782 5772 5781 5774 5768 5770 5771 5769 5769 5770 5770